This demonstration page uses our WeatherBlox Daily Observations layout. Learn more.

Hourly Observations for July 12, 2020

Temp ( °F °C ) Dew Point ( °F °C ) Humidity (%) Winds ( mph kmh ) Pressure ( in mb ) Visibility ( mi km ) Precip ( " mm )
12:15 am 00:15 Clear 64 17.8 61 16.1 90 90 NE 7 11 30.01 1016 10 16.0934 0 0
12:35 am 00:35 Clear 64 18 60 15.6 86 86 E 7 11 29.99 1016 10 16.0934 0 0
12:55 am 00:55 Clear 64 17.6 60 15.4 87 87 Calm 29.99 1015 10 16.0934 0 0
1:15 am 01:15 Clear 65 18.5 60 15.5 83 83 SSW 5 7 30.01 1016 10 16.0934 0 0
1:35 am 01:35 Clear 65 18.5 60 15.4 82 82 SSW 5 7 30.02 1017 10 16.0934 0 0
1:55 am 01:55 Clear 64 17.8 59 15.1 84 84 Calm 30.02 1016 10 16.0934 0 0
2:15 am 02:15 Clear 65 18.1 59 15.1 83 83 SSW 3 6 30.02 1017 10 16.0934 0 0
2:35 am 02:35 Clear 65 18.5 59 15.1 81 81 SW 3 6 30.02 1017 10 16.0934 0 0
2:55 am 02:55 Clear 62 16.7 59 14.8 89 89 Calm 30.02 1017 10 16.0934 0 0
3:15 am 03:15 Clear 62 16.8 60 15.3 91 91 SSW 3 6 30.03 1017 10 16.0934 0 0
3:35 am 03:35 Clear 64 17.8 59 15.2 85 85 Calm 30.03 1017 10 16.0934 0 0
3:55 am 03:55 Clear 62 16.7 58 14.6 88 88 Calm 30.02 1017 10 16.0934 0 0
4:15 am 04:15 Clear 61 16.1 57 14.1 88 88 Calm 30.03 1017 10 16.0934 0 0
4:35 am 04:35 Clear 61 16.2 58 14.6 90 90 Calm 30.04 1017 10 16.0934 0 0
4:55 am 04:55 Clear 61 16.2 59 14.9 92 92 Calm 30.04 1017 10 16.0934 0 0
5:15 am 05:15 Clear 60 15.6 57 14 90 90 Calm 30.04 1017 10 16.0934 0 0
5:35 am 05:35 Clear 62 16.5 59 14.9 90 90 Calm 30.04 1017 10 16.0934 0 0
5:55 am 05:55 Clear 61 16.1 59 14.8 92 92 Calm 30.04 1017 10 16.0934 0 0
6:15 am 06:15 Clear 62 16.9 60 15.3 90 90 Calm 30.03 1017 10 16.0934 0 0
6:35 am 06:35 Sunny 60 15.3 57 14.1 93 93 Calm 30.05 1017 10 16.0934 0 0
6:55 am 06:55 Sunny 60 15.3 58 14.5 95 95 Calm 30.06 1018 10 16.0934 0 0
7:15 am 07:15 Sunny 61 15.9 59 15 94 94 NNW 5 7 30.06 1018 10 16.0934 0 0
7:35 am 07:35 Sunny 63 17 61 15.9 93 93 Calm 30.05 1018 10 16.0934 0 0
7:55 am 07:55 Sunny 64 17.7 62 16.4 92 92 Calm 30.04 1017 10 16.0934 0 0
8:15 am 08:15 Sunny 66 19.1 63 17.1 88 88 Calm 30.02 1017 10 16.0934 0 0
8:35 am 08:35 Sunny 69 20.7 63 17.1 80 80 Calm 30.02 1017 10 16.0934 0 0
8:55 am 08:55 Sunny 71 21.7 64 17.8 79 79 Calm 30.01 1016 10 16.0934 0 0
9:15 am 09:15 Sunny 73 22.5 63 17.4 73 73 Calm 30 1016 10 16.0934 0 0
9:35 am 09:35 Sunny 75 24 63 17.1 65 65 SSW 5 7 29.98 1015 10 16.0934 0 0
9:55 am 09:55 Sunny 76 24.6 65 18.2 68 68 SSW 5 7 29.98 1015 10 16.0934 0 0
10:15 am 10:15 Sunny 78 25.6 63 17.2 60 60 WSW 6 9 29.96 1015 10 16.0934 0 0
10:35 am 10:35 Sunny 79 25.9 61 16.1 55 55 WSW 5 7 29.96 1015 10 16.0934 0 0
10:55 am 10:55 Sunny 78 25.5 61 16.1 56 56 SW 3 6 29.94 1014 10 16.0934 0 0
11:15 am 11:15 Sunny with Thunderstorms 75 23.8 65 18.4 72 72 W 9 15 29.98 1015 10 16.0934 0 0
11:35 am 11:35 Sunny with Light Thunderstorms 74 23.5 64 17.6 70 70 SW 7 11 29.98 1015 10 16.0934 0 0
11:55 am 11:55 Partly Cloudy 75 24 65 18.4 71 71 Calm 29.95 1014 10 16.0934 0 0
12:15 pm 12:15 Sunny with Thunderstorms 79 25.9 64 17.8 61 61 Calm 29.95 1014 10 16.0934 0 0
12:35 pm 12:35 Sunny 81 27.1 61 16.1 51 51 SSW 3 6 29.94 1014 10 16.0934 0 0
12:55 pm 12:55 Sunny 79 26 61 16.1 54 54 Calm 29.93 1013 10 16.0934 0 0
1:15 pm 13:15 Sunny 78 25.7 62 16.5 57 57 ENE 3 6 29.93 1014 10 16.0934 0 0
1:35 pm 13:35 Sunny 80 26.4 62 16.4 54 54 ESE 5 7 29.92 1013 10 16.0934 0 0
1:55 pm 13:55 Sunny 80 26.6 58 14.4 47 47 SSE 3 6 29.89 1012 10 16.0934 0 0
2:15 pm 14:15 Sunny 81 27.1 60 15.4 49 49 ESE 5 7 29.88 1012 10 16.0934 0 0
2:35 pm 14:35 Sunny 82 27.8 63 17 52 52 E 6 9 29.87 1012 10 16.0934 0 0
2:55 pm 14:55 Sunny 82 28 62 16.8 51 51 E 8 13 29.86 1011 10 16.0934 0 0
3:15 pm 15:15 Sunny 83 28.4 63 17 50 50 SE 6 9 29.85 1011 10 16.0934 0 0
3:35 pm 15:35 Sunny 85 29.2 61 16.3 46 46 SSE 8 13 29.82 1010 10 16.0934 0 0
3:55 pm 15:55 Sunny 85 29.6 59 15.2 42 42 SSE 9 15 29.82 1010 10 16.0934 0 0
4:15 pm 16:15 Sunny 86 30 62 16.4 44 44 SSE 10 17 29.81 1009 10 16.0934 0 0
4:35 pm 16:35 Sunny 86 30.1 60 15.8 42 42 SSE 14 22 29.8 1009 10 16.0934 0 0
4:55 pm 16:55 Sunny 87 30.4 61 16.2 42 42 SE 12 19 29.79 1009 10 16.0934 0 0
5:15 pm 17:15 Sunny 87 30.4 61 16.3 43 43 ESE 16 26 29.78 1009 10 16.0934 0 0
5:35 pm 17:35 Sunny 86 30.2 58 14.2 38 38 ESE 16 26 29.78 1008 10 16.0934 0 0
5:55 pm 17:55 Sunny 86 30.1 60 15.4 41 41 SE 14 22 29.77 1008 10 16.0934 0 0
6:15 pm 18:15 Sunny 86 29.9 63 17.1 46 46 ESE 15 24 29.77 1008 10 16.0934 0 0
6:35 pm 18:35 Sunny 85 29.2 63 17.2 48 48 SE 12 19 29.76 1008 10 16.0934 0 0
6:55 pm 18:55 Sunny 84 29 64 17.6 50 50 SE 10 17 29.77 1008 10 16.0934 0 0
7:15 pm 19:15 Sunny 84 28.7 64 17.7 51 51 SE 9 15 29.78 1008 10 16.0934 0 0
7:35 pm 19:35 Sunny 82 27.9 64 17.8 54 54 SE 10 17 29.78 1009 10 16.0934 0 0
7:55 pm 19:55 Sunny 78 25.8 64 18 62 62 ESE 7 11 29.8 1009 10 16.0934 0 0
8:15 pm 20:15 Sunny 77 25 66 19 69 69 ESE 9 15 29.81 1009 10 16.0934 0 0
8:35 pm 20:35 Sunny 76 24.7 66 19 71 71 SE 9 15 29.8 1009 10 16.0934 0 0
8:55 pm 20:55 Sunny 76 24.6 65 18.1 67 67 SE 13 20 29.79 1009 10 16.0934 0 0
9:15 pm 21:15 Clear 76 24.6 64 17.5 65 65 SE 13 20 29.77 1008 10 16.0934 0 0
9:35 pm 21:35 Clear 75 24.1 64 17.8 68 68 SE 12 19 29.75 1008 10 16.0934 0 0
9:55 pm 21:55 Partly Cloudy 75 23.7 64 17.7 69 69 SE 9 15 29.79 1009 10 16.0934 0 0
10:15 pm 22:15 Partly Cloudy 73 23 65 18.1 74 74 ESE 6 9 29.8 1009 10 16.0934 0 0
10:35 pm 22:35 Partly Cloudy 72 22.2 66 19 82 82 ESE 6 9 29.83 1010 10 16.0934 0 0
10:55 pm 22:55 Clear 72 22 67 19.6 86 86 ESE 9 15 29.83 1010 10 16.0934 0 0
11:15 pm 23:15 Clear 71 21.7 67 19.3 86 86 SE 9 15 29.83 1010 10 16.0934 0 0
11:35 pm 23:35 Clear 71 21.5 66 18.8 85 85 SE 9 15 29.84 1010 10 16.0934 0 0
11:55 pm 23:55 Clear 70 21.2 65 18.4 84 84 SE 13 20 29.83 1010 10 16.0934 0 0

Powered by AerisWeather